Погода Баку

Погода Баку : погода сейчас, прогноз погоды и архив. Всё, что Вы хотите узнать о погоде Баку!

Поиск расширенной информации на нашем сайте:

Другие новости

Новости СМИ2

Главная страница сайта

Новости сайта

03.07.2017

Напоминаем, что на нашем специализированном сайте Метеоцентр.Азия вы можете получить высокодетализированные автоматические прогнозы погоды по пунктам России, СНГ и мира в авиационном формате (включающие направление и скорость ветра, видимость, явления погоды, количество и форму облачности, нижнюю и верхнюю границу облачности).


Погода Баку - сегодня

Время (UTC), дата Ветер
(°,м/с) 
Видим.   Явления Облачность Т
(°С)
Тd
(°С)
f(%) Тe
(°С)
Pmin
(гПа)
dP
(гПа)
Po
(мм)
O2
(г/м3)
Тmin Tmax R s Состояние
почвы
00 19.11.17 140 (ЮВ) 10 км    4/4 600 м 
[Sc]
+12.2 +10.5 89 +12  1019.8  -0.8  765  292           
03 19.11.17 150 (ЮВ) 10 км    4/4 600 м 
[Sc]
+12.5 +10.2 86 +13  1019.1  -0.7  764  292           
06 19.11.17 150 (ЮВ) 10 км    5/5 600 м 
[Sc]
+13.7 +10.6 82 +15  1019.6  0.5  765  291  +11.6    0.6     
09 19.11.17 160 (Ю) 10 км    8/8 600 м 
[Sc]
+15.3 +10.4 73 +16  1017.7  -1.9  763  289           
12 19.11.17 120 (ЮВ) 10 км    8/4 1000 м средняя 
[Sc|Ac und]
+15.7 +10.9 73 +18  1016.2  -1.5  762  288           
15 19.11.17 150 (ЮВ) 10 км    8/0 средняя 
[Ac As]
+13.3 +10.6 84 +15  1015.9  -0.3  762  290           
18 19.11.17 160 (Ю) 10 км    8/0 средняя 
[Ac As]
+12.7 +10.7 88 +14  1015.4  -0.5  762  291    +16.6       
21 19.11.17 140 (ЮВ) 10 км    8/0 средняя 
[Ac As]
+13 +11.1 88 +15  1014  -1.4  761  290           
00 20.11.17 150 (ЮВ) 10 км    8/0 средняя 
[Ac As]
+12.8 +10.7 87 +14  1013  -1  760  290           
03 20.11.17 160 (Ю) 10 км    8/0 средняя 
[Ac As]
+13.4 +11.1 86 +14  1012.3  -0.7  759  289           
06 20.11.17 160 (Ю) 10  10 км    8/0 средняя 
[Ac As]
+13.6 +10.5 82 +14  1012  -0.3  759  289  +12.4         
09 20.11.17 160 (Ю) 10 км    8/0 средняя 
[Ac As]
+13.7 +10.6 82 +14  1010.4  -1.6  758  288           
12 20.11.17 270 (З) 10 км    4/0 средняя 
[Ac As]
+16.5 +11.1 70 +19  1009.6  -0.8  757  285           
15 20.11.17 170 (Ю) 10 км    ясно 
+12.2 +10.6 90 +13  1010.3  0.7  758  290           
18 20.11.17 180 (Ю) 10 км    ясно 
+14.2 +10.2 77 +16  1010.7  0.4  758  288    +17.8       
21 20.11.17 100 (В) 10 км    ясно 
+14 +9.8 76 +16  1009.8  -0.9  757  288           
00 21.11.17 130 (ЮВ) 10 км    ясно 
+13.4 +10.7 84 +16  1008.7  -1.1  757  288           
03 21.11.17 130 (ЮВ) 4000 м  дымка  ясно 
+14.5 +12.9 90 +19  1007.7  -1  756  286           
06 21.11.17 130 (ЮВ) 4000 м  дымка  ясно 
+14.8 +13.7 93 +21  1007.4  -0.3  756  285  +12.7         
09 21.11.17 150 (ЮВ) 10 км    6/0 средняя, верхняя 
[Ac As|Ci fib]
+17.7 +11.3 66 +20  1005.2  -2.2  754  282           
12 21.11.17 160 (Ю) 10 км    6/0 средняя, верхняя 
[Ac As|Ci fib]
+17.9 +12.1 69 +22  1003.4  -1.8  753  282           
15 21.11.17 150 (ЮВ) 10 км    6/0 средняя, верхняя 
[Ac As|Ci fib]
+14.4 +11.8 84 +18  1002.7  -0.7  752  285           
18 21.11.17 120 (ЮВ) 10 км    ясно 
+15.3 +11.7 79 +20  1001.5  -1.2  751  284    +18.6       
21 21.11.17 110 (В) 10 км    ясно 
+14.3 +12.3 88 +16  1099.9  -1.6  825  313           
00 22.11.17 120 (ЮВ) 10 км    ясно 
+14.8 +12.8 88 +17  1098.7  -1.2  824  312           
Время (UTC), дата Ветер
(°,м/с) 
Видим.   Явления Облачность Т
(°С)
Тd
(°С)
f(%) Тe
(°С)
Pmin
(гПа)
dP
(гПа)
Po
(мм)
O2
(г/м3)
Тmin Tmax R s Состояние
почвы

Для получения пояснительной информации подведите курсор к названию столбца.

ПОГОДА Баку - архив

Всё, что Вы хотите узнать о погоде Баку - удобно и подробно!

Выберите нужную дату (начиная с 1 января 2015* года) и нажмите кнопку "Найти".
Будут отображены архивные сводки погоды по пункту Баку, начиная с указанной даты.


Отображать данные в формате CSV (для использования в таблицах Excel)


Внимание! Наш архив погоды предназначен исключительно для личного некоммерческого использования в познавательных целях. Если Вам необходимы официальные справки о состоянии погоды (для производственных, юридических, коммерческих и т.п. целей), обращайтесь в органы Росгидромета.

*Примечание: данная дата относится к архиву по метеостанциям СССР (Россия, СНГ, Балтия).
Архив по метеостанциям Зарубежной Европы и Азии (кроме Китая) хранится 10 дней, по другим регионам земного шара (Китай, Африка, Америка, Австралия, Океания) - 1 день.

Баку - район местоположения метеостанции


Название, широта, долгота, высота метеостанции:
Баку (Гейдар Алиев) 40.4°ш. 50.1°д. -1 м над ур. моря [Азербайджан]

Дополнительная информация

В oтличие oт бoльшинства пoгoдных сайтoв мы публикуем пoдрoбную метеoинфoрмацию в детальнoм прoфессиoнальнoм фoрмате.

Характеристики температуры и влажнoсти вoздуха измеряются на высoте 2 м в тени вдали oт зданий и деревьев.
Скoрoсть ветра измеряется на высoте 10 м (на урoвне рoста челoвека скoрoсть ветра ниже в 1.5-2 раза). Если метеoстанция нахoдится в гoрoде или в лесу, тo скoрoсть ветра занижена на 2-4 м/с пo сравнению с oткрытым местoм. Скoрoсть ветра над акватoриями крупных рек и oзёр, а также на вершинах хoлмoв на 2-5 м/с выше, чем в oбычных услoвиях.
Атмoсфернoе давление в разных тoчках местнoсти мoжет значительнo oтличаться oт давления на метеoстанции, в зависимoсти oт услoвий рельефа (при пoдъёме на 10 м давление пoнижается примернo на 1 мм рт.ст.).